Weather in Gadabay

Azerbaijan     40˚34′28″N   45˚48′27″E
temp.,
°C
wind,
m/s
gust,
m/s
humid.,
%
clouds,
%
prec.,
mm/h
press.,
hPa
HPBL,
m
28 november, sat
sat2801:00−4˚sse11520 0.0 103521
04:00−4˚s11530 0.0 103421
07:00−4˚s11450 0.0 103421
10:00e01346 0.0 103385
13:00+3˚ne21361 0.0 1030331
16:00+1˚ne22601 0.0 1029204
19:00−3˚se01781 0.0 103021
22:00−3˚e017026 0.0 103021
29 november, sun
sun2901:00−3˚e117643 0.0 102921
04:00−3˚ese116827 0.0 102921
07:00−3˚sse016862 0.0 102821
10:00ese115781 0.0 102858
13:00+2˚nne1154100 0.0 1025254
16:00+1˚nne1166100 0.0 1024167
19:00−2˚s0181100 0.0 102533
22:00−3˚ene0086100 0.0 102636
30 november, mon
mon3001:00−2˚nnw1188100 0.1 102637
04:00−2˚wnw0191100 0.2 102651
07:00−2˚nne0093100 0.1 102526
10:00−1˚ne118479 0.2 1025151
13:00+2˚ne217751 0.0 1023441
16:00+1˚ne228772 0.1 1022255
19:00−1˚ene119794 0.0 102392
22:00−1˚ene119696 0.0 102474
1 december, tue
tue101:00−2˚e119799 0.0 102455
04:00−2˚e119795 0.1 102362
07:00−2˚ene119683 0.1 102466
10:00nne118376 0.1 1024191
13:00+2˚nne117053 0.0 1022495
16:00+1˚nne117965 0.0 1022269
19:00−1˚s018748 0.0 102441
22:00−1˚s127735 0.0 102522
2 december, wed
wed201:00−1˚ssw12761 0.0 102523
04:00−1˚ssw12770 0.0 102522
07:00−1˚ssw12770 0.0 102522
10:00+2˚s01640 0.0 1025127
13:00+4˚ne215924 0.0 1023388
16:00+2˚nne217562 0.0 1022197
19:00−2˚se019163 0.0 102321
22:00−2˚se119031 0.0 102521